ONEWEB-0325, 49194

Orbit data source: Space-Track

ONEWEB-0325, 49194 is a payload satellite owned by One Web (NAA) (UK) in LEO that was launched on Tue, 14 Sep 2021 UTC via a SOYUZ-2-1B launch vehicle from the Tyuratam Missile And Space Complex (TTMTR). Payload-class satellites include a variety of spacecraft equipped with specific instruments for various scientific and technological missions. These include communications satellites like Starlink; space stations such as the ISS; scientific satellites like the Hubble; Earth observation satellites from companies like Planet Labs, Umbra, and HawkEye 360; GPS; miniature CubeSats for education and research; and military/defense satellites.

Loading next visibility...
Identifier
49194, 2021-083J
Orbit
LEO
Country
Flag of UKUK
Related business
Manufacturer
One Web
Mission
Operational Commercial Communications
Bus & Motor
ARROW, Unknown motor
Mass
148 kg wet, ~140 kg dry
Launch date (UTC)
2021-09-14 (5 years ago)
Launch vehicle
SOYUZ-2-1B
Launch site
Tyuratam Missile And Space Complex (TTMTR)
Object type
Payload
Rocket body
Debris
Shape & HBR
Trap Box + 2 Pan, 6.7 m
Radar Cross Section
3.464 m², Large (>1 m²)

Expand to show TLE details & history
Last TLE update: 2 days ago

TLE from 2 days ago
0 ONEWEB-0325
1 49194U 21083J   26171.40127176  .00000070  00000-0  14365-3 0  9995
2 49194  87.9164 334.8180 0001797  91.8102 268.3236 13.18685806230434
Epoch: 2026-06-20T09:37Z
TLE epoch observation values (Epoch: 2026-06-20T09:37:49.880Z)
Latitude
Longitude
-78.25626°
Altitude
1,192.684 km
Speed
7.257 km/s
True Right ascension
22h 19m 16s
True Declination
0° 00' 00"
Sunlit
Object was in daylight at epoch
Visualization orbit readout
Latitude
Unknown
Longitude
Unknown
Altitude
Unknown
Speed
Unknown
Apparent Right ascension
Unknown
Apparent Declination
Unknown
Sunlit
N/A
Visualization observer readout
Local Sidereal Time
21:33:58
Azimuth
Unknown
Elevation
Unknown
Doppler factor
Unknown
Orbital elements
Apogee altitude
1,188.211 km
Perigee altitude
1,185.492 km
Semi-major axis
7,564.988 km
Eccentricity
0.00018
Inclination
87.9164°
RAAN
334.818°
Arg. of periapsis
91.8102°
True anomaly
268.30302°
Mean anomaly
268.3236°
Eccentric anomaly
268.31331°
Mean motion
3.29861 °/min
Orbital period
109.14 mins
BSTAR
0.00014365
Loading maneuver chart data...
Computing Atmospheric mass density...
Loading historical data...
Loading historical data...
Loading historical data...
Loading historical data...
Loading historical data...
Loading historical data...
Loading historical data...

Documentation

Showing up to 5 results
|